Airfield :
LOGIN :

Register | Disclaimer

   EN    FR    IT 

 










Legend :    VFR   Marginal VFR   IFR   Intensive IFR   Very Intensive IFR
Visi :
Ceiling :
>= 8 km
>= 3000ft
5 to 8 km
1000 to 3000 ft
1500m to 5 km
500 to 1000 ft
800 to 1500m
200 to 500 ft
< 800m
< 200 ft
Symbols :   Thunderstorms  Fog  Heavy snow  Heavy precipitations  Wind > 20 kt
SIGMETs :     Misc.  Thunderstorms  Icing  Turbulence  Mountain Waves  Volcanic Ashes







- Airport Elevation : 11 ft
- IATA code : SXL


EISG - Sligo

CURRENT METAR :
  • 121600Z 11015KT CAVOK 07/05 Q1006

EXPIRED METARs :
  • 121530Z 11012KT CAVOK 07/05 Q1007
  • 121500Z 11012G23KT 9999 BKN014 07/05 Q1008
  • 121430Z 12010KT 090V150 9999 OVC012 07/05 Q1008

TAF TAF EISG
Valid from the 12 at 18:00 until the 13 at 03:00 UTC


121700Z 1218/1303 11015KT 9999 SCT040
BECMG 1218/1220 14017G30KT
TEMPO 1300/1303 5000 -RA BKN010
No reported NOTAMs for that airfield.



MET'MAP, your aeronautical weather chart ! - Copyright ORBIFLY December 2007 - Disclaimer

ORBIFLY MET'MAP TEAM :

Programming & Development : Alexandra Zaïnal
Concept & Development : Baudouin d'Aumeries
Co-Development & Prog : Marc-Olivier Méhu
Technical & hardware support : Manuel Goepfert

Contact : metmap@orbifly.com




SOURCES & CREDITS :

   NOAA